Location: Chicago
(41.8500°N, 87.6500°W)
Time: 23:19:49
(UTC-06:00)

OTV 5 (USA 277) - Visible Passes

Search period start: 19 February 2018 00:00
Search period end: 01 March 2018 00:00
Orbit: 404 x 417 km, 43.0° (Epoch: 07 September)

Date Brightness Start Highest point End Pass type
(mag) Time Alt. Az. Time Alt. Az. Time Alt. Az.
19 Feb ? 05:13:04 10° SSE 05:14:19 12° SE 05:15:33 10° ESE visible
20 Feb ? 05:57:04 10° SW 06:00:06 36° SSE 06:03:11 10° E visible
21 Feb ? 05:07:29 17° SSW 05:09:09 25° SSE 05:11:57 10° E visible
22 Feb ? 04:19:05 16° SE 04:19:05 16° SE 04:20:31 10° ESE visible
22 Feb ? 05:51:54 10° WSW 05:55:11 70° SSE 05:58:28 10° E visible
23 Feb ? 05:03:20 39° SSW 05:04:09 51° SSE 05:07:22 10° E visible
24 Feb ? 04:14:44 22° ESE 04:14:44 22° ESE 04:16:14 10° E visible
24 Feb ? 05:47:30 13° W 05:50:21 79° N 05:53:39 10° E visible
25 Feb ? 04:58:49 64° WSW 04:59:17 88° SSE 05:02:35 10° ENE visible
26 Feb ? 04:10:07 23° E 04:10:07 23° E 04:11:31 10° E visible
26 Feb ? 05:42:52 14° W 05:45:36 69° N 05:48:52 10° E visible
27 Feb ? 04:54:08 62° NW 04:54:29 71° N 04:57:47 10° E visible
28 Feb ? 04:05:23 22° ENE 04:05:23 22° ENE 04:06:42 10° E visible
28 Feb ? 05:38:08 15° WNW 05:40:49 81° N 05:44:07 10° E visible
